Location: Banff
(51.1667°N, 115.5667°W)
Time: 15:25:22
(UTC+00:00)

Altair - Pass Details

Date: 05 December 2020
Orbit: 1501 x 1682 km, 47.2° (Epoch: 15 January)

Event Time Altitude Azimuth Distance (km) Brightness Sun altitude
Rises 04:02:08 0° 246° (WSW) 4,739 10.6 -40.4°
Reaches altitude 10° 04:05:16 10° 244° (WSW) 3,733 9.9 -40.9°
Enters shadow 04:11:21 44° 226° (SW) 2,018 8.1 -41.8°
